Tracking 19638 objects as of 19-Apr-2019
HD Live streaming from Space Station
objects crossing your sky now

COSMOS 1249 COOLANT

Track COSMOS 1249 COOLANT now!
10-day predictions


NORAD ID: 26506
Int'l Code: 1981-021H
Perigee: 901.5 km
Apogee: 961.0 km
Inclination: 65.0 °
Period: 103.5 minutes
Semi major axis: 7302 km
RCS: 0.0043 m2 (small)
Launch date: March 5, 1981
Source: Commonwealth of Independent States (former USSR) (CIS)
Launch site: TYURATAM MISSILE AND SPACE COMPLEX (TTMTR)

Note: This is SATELLITE DEBRIS
aabbcc
Your satellite tracking list
Your tracking list is empty




NASA's NSSDC Master Catalog

Two Line Element Set (TLE):
1 26506U 81021H   19091.16695320 -.00000037  00000-0  42446-4 0  9998
2 26506  64.9600   5.1436 0040750  18.6353 341.6192 13.91285099974369
Source of the keplerian elements: AFSPC